Regional Weather Roundup
Issued by NWS Albany, NY

Home | Current Version | Previous Version | Graphics & Text | Print | Product List | Glossary Off
Versions: 1 2 3 4 5 6 7 8 9 10 11 12 13 14 15 16 17 18 19 20 21 22 23 24 25 26 27 28

000
ASUS41 KALY 191510
RWRALY

NEW YORK STATE HOURLY WEATHER ROUNDUP
NATIONAL WEATHER SERVICE ALBANY NY
1000 AM EST SUN FEB 19 2017

NOTE: "FAIR" INDICATES FEW OR NO CLOUDS BELOW 12,000 FEET WITH NO
SIGNIFICANT WEATHER AND/OR NO OBSTRUCTIONS TO VISIBILITY.

NYZ032-033-038>043-046>054-057>066-NYZ062>081-082-084-191600-
EAST


CITY           SKY/WX    TMP DP  RH WIND       PRES   REMARKS
ALBANY         PTSUNNY   48  34  58 W10       29.78R
GLENS FALLS    SUNNY     49  35  58 SW12      29.73R
POUGHKEEPSIE   CLOUDY    49  36  61 CALM      29.79R
NEWBURGH       PTSUNNY   50  39  66 W14       29.81R
MONTGOMERY     CLOUDY    48  36  63 SW8       29.80R
WHITE PLAINS   MOSUNNY   56  36  47 NW14      29.79R
ISLIP          CLOUDY    57  38  48 W10       29.80R
NEW YORK CITY  CLOUDY    60  36  40 W8        29.81R
CENTRAL PARK   CLOUDY    58  36  43 W7        29.83S
$$

NYZ005>009-017-018-044>046-055-056-191600-
CENTRAL


CITY           SKY/WX    TMP DP  RH WIND       PRES   REMARKS
FULTON         SUNNY     45  35  68 W15G28    29.85R
SYRACUSE       MOSUNNY   44  34  67 W13       29.83R
ROME           MOSUNNY   35  32  88 CALM      29.84R
ELMIRA         PTSUNNY   46  37  71 SW8       29.86R
BINGHAMTON     PTSUNNY   45  35  68 W12       29.82R
MONTICELLO     CLOUDY    46  36  66 NW13      29.82R
$$

NYZ026>034-041>043-087-191600-
NORTH


CITY           SKY/WX    TMP DP  RH WIND       PRES   REMARKS
WATERTOWN      SUNNY     41  35  79 W12       29.81R
FORT DRUM      NOT AVBL
OGDENSBURG     FAIR      47  34  61 W7        29.75R
MASSENA        SUNNY     43  33  68 W15G22    29.74R
SARANAC LAKE   MOSUNNY   38  34  85 SW12      29.67R WCI  30
PLATTSBURGH    MOSUNNY   47  34  60 SW12G17   29.66S
$$

NYZ001>004-010>016-019>021-085-191600-
WEST


CITY           SKY/WX    TMP DP  RH WIND       PRES   REMARKS
NIAGARA FALLS  SUNNY     49  37  63 SW12      29.88S
BUFFALO        MOSUNNY   42  35  76 SW12      29.90R
DUNKIRK        SUNNY     47  38  71 SW14      29.93R
JAMESTOWN      SUNNY     45  36  70 W13       29.91R
WELLSVILLE     SUNNY     50  37  61 W10       29.89R
ROCHESTER      MOSUNNY   51  37  58 W12       29.87R
PENN YAN       PTSUNNY   50  35  56 SW7       29.85R
$$

             KEY
       WCI = WIND CHILL INDEX
       VSB = VISIBILITY
       HX  = HEAT INDEX
$$




USA.gov is the U.S. government's official web portal to all federal, state and local government web resources and services.